Regional Weather Roundup
Issued by NWS Midland/Odessa, TX

Skip options and go directly to product.
Home | Oldest Version | Previous Version | Current Version | All | Text Only | Save Text | Print | Product List | Glossary On

Skip product version selection by date and time.   
643
ASUS44 KMAF 022310
RWRMAF
MIDLAND AREA WEATHER ROUNDUP
NATIONAL WEATHER SERVICE MIDLAND TX
500 PM CST MON MAR 02 2015

...IN SOUTHWEST TEXAS AND SOUTHEAST NEW MEXICO...

CITY           SKY/WX    TMP DP  RH WIND       PRES   REMARKS
ALPINE         PTSUNNY   55  41  59 NE5       30.10S
ANDREWS        CLOUDY    35  35 100 SE6       30.11R FOG     WCI  30
ARTESIA        CLOUDY    39  37  93 S16       30.05F WCI  30
BIG SPRING     CLOUDY    38  36  90 CALM      30.16S
CARLSBAD       CLOUDY    40  33  76 SE10      30.06F WCI  33
DRYDEN           N/A     48  40  73 E8        30.08F
FORT STOCKTON  CLOUDY    41  38  89 MISG      30.07F
GUAD PASS      NOT AVBL
HOBBS          PTSUNNY   39  36  87 SE7       30.07F WCI  34
MARFA          CLOUDY    68  36  30 S10       30.04F
MIDLAND AIRPK  CLOUDY    37  37 100 E3        30.12S FOG
MIDLAND INTL   CLOUDY    37  35  92 E6        30.11F FOG     WCI  32
ODESSA         CLOUDY    36  34  92 E6        30.11F FOG     WCI  31
PECOS          CLOUDY    43  36  75 E5        30.08F
PRESIDIO       FAIR      71  41  34 E3        29.95F
SEMINOLE       CLOUDY    35  34  97 CALM      30.10F FOG
SNYDER         CLOUDY    34  33  94 CALM      30.14F FOG
WINK           CLOUDY    43  32  65 E6        30.07F WCI  39
$$
...OTHER STATIONS IN TEXAS...

CITY           SKY/WX    TMP DP  RH WIND       PRES   REMARKS
ABILENE        CLOUDY    38  34  85 SE3       30.16F
AMARILLO       CLOUDY    35  30  82 S18       30.04F WCI  24
AUSTIN         CLOUDY    44  41  89 N8        30.20F FOG     WCI  39
BROWNSVILLE    FOG       58  56  93 N8        30.12F VSB 1
CORPUS CHRISTI DRZL/FOG  54  52  93 N8        30.15F VSB 1
DALLAS FTW     CLOUDY    40  37  89 CALM      30.21F FOG
DEL RIO        CLOUDY    51  43  74 SE6       30.12F
EL PASO        LGT RAIN  53  46  77 NW3       29.98R
HOUSTON INT    CLOUDY    59  54  83 N5        30.18F
LUBBOCK        FOG       33  32  96 S9        30.09F VSB 1   WCI  25
SAN ANGELO     CLOUDY    39  36  89 E6        30.14F WCI  35
SAN ANTONIO    CLOUDY    48  45  89 NE7       30.17F
WACO           CLOUDY    40  39  97 N6        30.22F FOG     WCI  36
WICHITA FALLS  NOT AVBL
$$
...OTHER LOCATIONS IN NEW MEXICO...

CITY           SKY/WX    TMP DP  RH WIND       PRES   REMARKS
ALAMAGORDO     CLOUDY    63  36  36 SW13G20   29.98R
ALBUQUERQUE    CLOUDY    59  34  39 S31G37    29.85F
CANNON AFB     CLOUDY    37  34  87 S10       30.00F WCI  30
CLOVIS         CLOUDY    36  32  87 S13       30.02F WCI  27
HOLLOMAN AFB   LGT RAIN  59  41  52 W9        29.97R
ROSWELL        CLOUDY    42  34  73 S18       30.03F WCI  34
RUIDOSO        LGT RAIN  46  39  76 SW29G41   30.01R WCI  37
SANTA FE       CLOUDY    50  33  52 S16       29.86F
TRUTH OR CONSE CLOUDY    56  47  71 S17G26    29.91F
TUCUMCARI      CLOUDY    37  34  89 SW14      30.00F WCI  28
$$

USA.gov is the U.S. government's official web portal to all federal, state and local government web resources and services.